Location: Monrovia
(34.7865°N, 86.7139°W)
Time: 21:50:24
(UTC+00:00)

COBE Rocket - Pass Details

Date: 14 July 2020
Orbit: 679 x 783 km, 97.1° (Epoch: 08 August)

Event Time Altitude Azimuth Distance (km) Brightness Sun altitude
Exits shadow 09:01:51 33° 231° (SW) 1,256 4.5 -18.0°
Maximum altitude 09:03:05 38° 263° (W) 1,136 4.5 -17.8°
Drops below altitude 10° 09:07:42 10° 331° (NNW) 2,246 6.6 -17.1°
Sets 09:10:06 0° 339° (NNW) 3,155 7.5 -16.7°
